GW4962 Weather Reports


time (UTC)temp
C
wind
direction
speed
KPH
gust
KPH
rain 1hr
cm
rain 24hr
cm
rain mn
cm
humidity
%
barometer
mb
20260504190042 16 44 4.8 22.5 0.00 0.00 0.00 42 1006.2
20260504184542 17 17 8.0 30.6 0.00 0.00 0.00 40 1006.1
20260504183037 17 322 4.8 16.1 0.00 0.00 0.00 43 1006.0
20260504181538 18 318 6.4 20.9 0.00 0.00 0.00 39 1005.8
20260504180042 17 29 6.4 19.3 0.00 0.00 0.00 40 1005.5
20260504174539 17 24 6.4 17.7 0.00 0.00 0.00 39 1005.5
20260504173037 17 275 4.8 17.7 0.00 0.00 0.00 40 1005.3
20260504171544 17 319 1.6 22.5 0.00 0.00 0.00 41 1004.9
20260504081542 12 171 3.2 17.7 0.00 0.00 0.00 58 1002.6
20260504044540 12 0 0.0 0.0 0.00 0.00 0.00 55 1005.3
20260504043039 12 0 0.0 0.0 0.00 0.00 0.00 53 1005.7
20260504041540 13 0 0.0 0.0 0.00 0.00 0.00 51 1006.0
20260504040041 14 0 0.0 1.6 0.00 0.00 0.00 49 1006.1
20260504034541 14 0 0.0 1.6 0.00 0.00 0.00 49 1006.4
20260504033037 14 0 0.0 1.6 0.00 0.00 0.00 49 1006.7
20260504031543 14 0 0.0 0.0 0.00 0.00 0.00 50 1006.9
20260504030043 15 171 0.0 0.0 0.00 0.00 0.00 49 1007.0
20260504024539 15 0 0.0 0.0 0.00 0.00 0.00 49 1007.2
20260504023037 15 0 0.0 0.0 0.00 0.00 0.00 48 1007.1
20260504021537 16 0 0.0 1.6 0.00 0.00 0.00 46 1007.2
20260504020038 17 0 0.0 1.6 0.00 0.00 0.00 45 1007.2
20260504014550 18 0 0.0 0.0 0.00 0.00 0.00 43 1007.3
20260504013045 18 257 1.6 6.4 0.00 0.00 0.00 40 1007.4
20260504011540 19 0 0.0 9.7 0.00 0.00 0.00 40 1007.4
20260504010038 20 0 0.0 8.0 0.00 0.00 0.00 39 1007.5
20260504004537 20 309 0.0 6.4 0.00 0.00 0.00 38 1007.5
20260504003045 20 255 1.6 6.4 0.00 0.00 0.00 39 1007.6
20260504001537 20 0 0.0 8.0 0.00 0.00 0.00 39 1007.7
20260504000046 21 24 1.6 14.5 0.00 0.00 0.00 39 1007.9
20260503234547 21 265 1.6 12.9 0.00 0.00 0.00 37 1008.0
20260503233037 21 36 0.0 3.2 0.00 0.00 0.00 36 1008.1
20260503231537 21 98 1.6 14.5 0.00 0.00 0.00 36 1008.2
20260503230042 21 0 1.6 11.3 0.00 0.00 0.00 36 1008.5
20260503224537 22 215 0.0 4.8 0.00 0.00 0.00 34 1008.5
20260503223038 22 42 1.6 9.7 0.00 0.00 0.00 35 1008.7
20260503221538 22 36 3.2 16.1 0.00 0.00 0.00 35 1008.7
20260503220046 22 31 1.6 8.0 0.00 0.00 0.00 34 1008.9
20260503214538 22 22 3.2 9.7 0.00 0.00 0.00 34 1009.2
20260503213038 22 242 1.6 8.0 0.00 0.00 0.00 36 1009.3
20260503211537 22 271 3.2 19.3 0.00 0.00 0.00 36 1009.6
20260503210040 22 252 1.6 6.4 0.00 0.00 0.00 37 1009.8
20260503204539 22 33 3.2 6.4 0.00 0.00 0.00 37 1010.0
20260503203038 22 21 1.6 4.8 0.00 0.00 0.00 38 1010.2
20260503201536 22 309 1.6 9.7 0.00 0.00 0.00 39 1010.3
20260503200043 22 292 1.6 9.7 0.00 0.00 0.00 36 1010.8
20260503194539 22 317 3.2 14.5 0.00 0.00 0.00 37 1010.6
20260503193039 21 292 3.2 14.5 0.00 0.00 0.00 37 1010.7
20260503191539 21 34 3.2 8.0 0.00 0.00 0.00 42 1010.9